WGS F6 (USA 244)

Last updated on Thu Jul 03 2025 00:02:46 GMT+0000 (Coordinated Universal Time)

1 39222U 13041A 25183.53977549 .00000096 00000+0 00000+0 0 9998 2 39222 0.0146 15.1697 0000262 54.9404 269.8328 1.00273686 42553
UTC large
Height (km)
Speed (km/s)
/
Latitude / Longitude
Inclination (degrees)
Orbital Period (minutes)
Azimuth
Elevation
Range (km)
Doppler Factor

Next 0 passes for location: London (51.5072 / 0.1276)

Sorry there are no passes over London.